Погода Обсерватория Федорова

Погода Обсерватория Федорова : погода сейчас, прогноз погоды и архив. Всё, что Вы хотите узнать о погоде Обсерватория Федорова!

Хотите узнать прогноз погоды Обсерватория Федорова? Тогда Вам сюда: Погода Обсерватория Федорова

Поиск расширенной информации на нашем сайте:

Другие новости

Новости СМИ2

Главная страница сайта

Новости сайта

03.07.2017

Напоминаем, что на нашем специализированном сайте Метеоцентр.Азия вы можете получить высокодетализированные автоматические прогнозы погоды по пунктам России, СНГ и мира в авиационном формате (включающие направление и скорость ветра, видимость, явления погоды, количество и форму облачности, нижнюю и верхнюю границу облачности).

Рекомендуем: Здесь Pro Evolution Soccer 2012 cкачать через торрент без регистрации бесплатно без вирусов и смс

Погода Обсерватория Федорова - сегодня

Время (UTC), дата Ветер
(°,м/с) 
Видим.   Явления Облачность Т
(°С)
Тd
(°С)
f(%) Тe
(°С)
Pmin
(гПа)
dP
(гПа)
Po
(мм)
O2
(г/м3)
Тmin Tmax R s Состояние
почвы
15 19.11.17 060 (СВ) 8{10}  4000 м  слаб. ливневой снег  10/10 480 м кучево-дожд. 
[Cb cap]
-12.9 -13.8 93 -20  1032.9  -0.4  773  328           
18 19.11.17 070 (В) 10-12{13}  2000 м  слаб. ливневой снег  10/10 500 м кучево-дожд. 
[Cb cap]
-12.5 -13.3 94 -20  1032.9  -0.1  773  328           
21 19.11.17 060 (СВ) 11-14  2000 м  слаб. ливневой снег  10/6 630 м кучево-дожд., средняя 
[Cb cap|Ac und]
-13.1 -14.4 90 -21  1033.7  0.7  774  329           
00 20.11.17 070 (В) 10-13{15}  4000 м  метель{ливн. осадки}  6/0 средняя 
[Ac As]
-14.1 -15.1 92 -22  1034.8  1.1  775  331  -15.5    0.3  неравномерный
сухой снег
100% 
03 20.11.17 060 (СВ) 10-12{13}  2000 м  слаб. ливневой снег  10/10 200 м кучево-дожд. 
[Cb cap]
-12.3 -13.1 94 -20  1035.2  0.5  775  328           
06 20.11.17 070 (В) 10-13{14}  0200 м  слаб. ливневой снег  10/10 450 м кучево-дожд. 
[Cb cap]
-13.6 -14.7 91 -22  1035.6  0.4  775  330           
09 20.11.17 050 (СВ) 10-15  2000 м  слаб. ливневой снег  10/10 600 м кучево-дожд. 
[Cb cap]
-12.1 -13.2 91 -20  1034.7  -0.9  775  328           
12 20.11.17 070 (В) 11-13{15}  4000 м  метель{ливн. осадки}  10/10 540 м 
[Sc]
-13.7 -14.9 91 -22  1035.4  0.7  775  330    -11.9  0.7     
15 20.11.17 050 (СВ) 9-12{14}  4000 м  метель  10/10 660 м 
[Sc]
-11.3 -12.3 92 -18  1035.9  0.5  776  327           
18 20.11.17 050 (СВ) 11-15{15}  2000 м  метель  10/10 600 м 
[Sc]
-13.8 -15.1 90 -22  1036.4  0.5  776  331           
21 20.11.17 050 (СВ) 11-15{15}  2000 м  метель  10/4 600 м средняя 
[Sc|Ac und]
-17.9 -19.3 89 -27  1037.3  0.8  777  336           
00 21.11.17 050 (СВ) 11-14{16}  4000 м  метель  6/0 средняя 
[Ac trans]
-20 -21.7 86 -30  1038.1  0.8  777  340  -20      неравномерный
мокрый или
старый снег
100% 
03 21.11.17 050 (СВ) 11-14{15}  4000 м  метель  8/4 600 м средняя, верхняя 
[Sc|Ac trans|Ci fib]
-22 -24 84 -33  1038.8  0.7  778  343  -22         
06 21.11.17 050 (СВ) 12-15{15}  4000 м  метель  10/10 630 м 
[Sc]
-19.7 -21.3 87 -30  1039.6  0.8  778  340           
09 21.11.17 050 (СВ) 12-15{16}  4000 м  метель  10/10 800 м 
[Sc]
-18.8 -20.4 87 -29  1041.2  1.6  780  339           
12 21.11.17 060 (СВ) 8-11{15}  20000 м  позёмок  6/0 средняя, верхняя 
[Ac trans|Ci fib]
-20.1 -21.8 86 -29  1043.1  1.9  781  341    -17.8       
15 21.11.17 060 (СВ) 8-10{11}  20000 м  позёмок  8/0 средняя, верхняя 
[Ac trans|Ci fib]
-19.7 -21.6 85 -28  1044.1  782  341           
18 21.11.17 070 (В) 9-11{12}  4000 м  метель  8/0 средняя, верхняя 
[Ac trans|Ci fib]
-20.2 -22.1 85 -29  1044.7  0.5  782  342           
21 21.11.17 080 (В) 5{11}  20000 м    8/0 средняя, верхняя 
[Ac trans|Ci fib]
-19.8 -21.4 87 -26  1045.8  1.1  783  342           
00 22.11.17 080 (В) 20000 м    10/10 480 м 
[Sc]
-20.2 -21.8 87 -27  1046.1  0.3  783  343  -20.7      неравномерный
мокрый или
старый снег
100% 
03 22.11.17 110 (В) 20000 м    8/0 средняя 
[Ac trans]
-23.3 -25.3 84 -26  1046.6  0.4  784  347  -24.7         
06 22.11.17 140 (ЮВ) 20000 м    6/0 средняя, верхняя 
[Ac trans|Ci fib]
-25.3 -27.5 82 -30  1046.5  -0.2  783  350           
09 22.11.17 180 (Ю) 20000 м    3/0 средняя 
[Ac trans]
-24.1 -26.1 83 -27  1046.6  0.1  784  348           
12 22.11.17 180 (Ю) 20000 м    10/10 1300 м 
[Sc]
-23.3 -25.7 81 -26  1046.1  -0.5  783  347    -20.2       
15 22.11.17 100 (В) 20000 м    10/10 600 м 
[Sc]
-21.1 -23 85 -24  1045.8  -0.2  783  344           
Время (UTC), дата Ветер
(°,м/с) 
Видим.   Явления Облачность Т
(°С)
Тd
(°С)
f(%) Тe
(°С)
Pmin
(гПа)
dP
(гПа)
Po
(мм)
O2
(г/м3)
Тmin Tmax R s Состояние
почвы

Для получения пояснительной информации подведите курсор к названию столбца.

ПОГОДА Обсерватория Федорова - архив

Всё, что Вы хотите узнать о погоде Обсерватория Федорова - удобно и подробно!

Выберите нужную дату (начиная с 1 января 2015* года) и нажмите кнопку "Найти".
Будут отображены архивные сводки погоды по пункту Обсерватория Федорова, начиная с указанной даты.


Отображать данные в формате CSV (для использования в таблицах Excel)


Внимание! Наш архив погоды предназначен исключительно для личного некоммерческого использования в познавательных целях. Если Вам необходимы официальные справки о состоянии погоды (для производственных, юридических, коммерческих и т.п. целей), обращайтесь в органы Росгидромета.

*Примечание: данная дата относится к архиву по метеостанциям СССР (Россия, СНГ, Балтия).
Архив по метеостанциям Зарубежной Европы и Азии (кроме Китая) хранится 10 дней, по другим регионам земного шара (Китай, Африка, Америка, Австралия, Океания) - 1 день.

Обсерватория Федорова - район местоположения метеостанции


Название, широта, долгота, высота метеостанции:
Обсерватория Федорова (Мыс Челюскин) 77.7°ш. 104.3°д. 15 м над ур. моря [Российская Федерация]

Дополнительная информация

В oтличие oт бoльшинства пoгoдных сайтoв мы публикуем пoдрoбную метеoинфoрмацию в детальнoм прoфессиoнальнoм фoрмате.

Характеристики температуры и влажнoсти вoздуха измеряются на высoте 2 м в тени вдали oт зданий и деревьев.
Скoрoсть ветра измеряется на высoте 10 м (на урoвне рoста челoвека скoрoсть ветра ниже в 1.5-2 раза). Если метеoстанция нахoдится в гoрoде или в лесу, тo скoрoсть ветра занижена на 2-4 м/с пo сравнению с oткрытым местoм. Скoрoсть ветра над акватoриями крупных рек и oзёр, а также на вершинах хoлмoв на 2-5 м/с выше, чем в oбычных услoвиях.
Атмoсфернoе давление в разных тoчках местнoсти мoжет значительнo oтличаться oт давления на метеoстанции, в зависимoсти oт услoвий рельефа (при пoдъёме на 10 м давление пoнижается примернo на 1 мм рт.ст.).